Location: Natural Bridges National Monument
(37.6093°N, 109.9767°W)
Time: 02:18:11
(UTC-07:00)

Hubble Space Telescope - Visible Passes

Search period start: 23 January 2020 00:00
Search period end: 02 February 2020 00:00
Orbit: 536 x 540 km, 28.5° (Epoch: 22 January)

Date Brightness Start Highest point End Pass type
(mag) Time Alt. Az. Time Alt. Az. Time Alt. Az.
28 Jan 3.5 06:55:39 10° SSW 06:57:38 13° SSE 06:59:36 10° SE visible
29 Jan 3.4 06:44:28 10° SSW 06:46:53 15° SSE 06:49:18 10° SE visible
30 Jan 3.2 06:33:26 10° SSW 06:36:10 17° SSE 06:38:54 10° SE visible
31 Jan 3.0 06:22:30 10° SW 06:25:26 19° S 06:28:23 10° SE visible
01 Feb 2.8 06:11:39 10° SW 06:14:44 20° S 06:17:49 10° ESE visible
